Time,TemperatureF,DewpointF,PressureIn,WindDirection,WindDirectionDegrees,WindSpeedMPH,WindSpeedGustMPH,Humidity,HourlyPrecipIn,Conditions,Clouds,dailyrainin,SoftwareType,DateUTC
2013-04-03 00:00:00,62.0,50.9,30.11,East,79,0.0,0.0,67,0.00,,CLR,0.01,VWS V14.01,2013-04-03 04:00:00,
2013-04-03 00:02:00,61.8,51.1,30.11,East,79,0.0,0.0,68,0.00,,CLR,0.00,VWS V14.01,2013-04-03 04:02:00,
2013-04-03 00:03:00,61.7,51.0,30.11,East,79,0.0,0.0,68,0.00,,CLR,0.00,VWS V14.01,2013-04-03 04:03:00,
2013-04-03 00:06:00,61.3,50.7,30.11,East,79,0.0,0.0,68,0.00,,CLR,0.00,VWS V14.01,2013-04-03 04:06:00,
2013-04-03 00:11:00,61.0,50.4,30.10,East,79,0.0,0.0,68,0.00,,CLR,0.00,VWS V14.01,2013-04-03 04:11:00,
2013-04-03 00:16:00,60.5,50.7,30.11,East,79,0.0,0.0,70,0.00,,CLR,0.00,VWS V14.01,2013-04-03 04:16:00,
2013-04-03 00:21:00,60.1,49.9,30.11,East,79,0.0,0.0,69,0.00,,CLR,0.00,VWS V14.01,2013-04-03 04:21:00,
2013-04-03 00:26:00,60.0,49.8,30.11,East,79,0.0,0.0,69,0.00,,CLR,0.00,VWS V14.01,2013-04-03 04:26:00,
2013-04-03 00:31:00,60.2,50.4,30.10,East,79,0.0,0.0,70,0.00,,CLR,0.00,VWS V14.01,2013-04-03 04:31:00,
2013-04-03 00:37:00,59.8,50.8,30.10,East,79,0.0,0.0,72,0.00,,CLR,0.00,VWS V14.01,2013-04-03 04:37:00,
2013-04-03 00:42:00,59.7,50.7,30.10,East,79,0.0,0.0,72,0.00,,CLR,0.00,VWS V14.01,2013-04-03 04:42:00,
2013-04-03 00:47:00,59.5,50.5,30.10,East,79,0.0,0.0,72,0.00,,CLR,0.00,VWS V14.01,2013-04-03 04:47:00,
2013-04-03 00:52:00,59.2,50.6,30.11,East,79,0.0,0.0,73,0.00,,CLR,0.00,VWS V14.01,2013-04-03 04:52:00,
2013-04-03 00:57:00,58.8,50.5,30.11,East,79,0.0,0.0,74,0.00,,CLR,0.00,VWS V14.01,2013-04-03 04:57:00,
2013-04-03 01:02:00,58.7,50.5,30.11,East,79,0.0,0.0,74,0.00,,CLR,0.00,VWS V14.01,2013-04-03 05:02:00,
2013-04-03 01:07:00,58.9,50.6,30.10,East,79,0.0,0.0,74,0.00,,CLR,0.00,VWS V14.01,2013-04-03 05:07:00,
2013-04-03 01:12:00,59.4,51.5,30.09,East,79,0.0,0.0,75,0.00,,CLR,0.00,VWS V14.01,2013-04-03 05:12:00,
2013-04-03 01:17:00,59.5,51.6,30.09,East,79,0.0,0.0,75,0.00,,CLR,0.00,VWS V14.01,2013-04-03 05:17:00,
2013-04-03 01:22:00,59.8,51.9,30.10,East,79,0.0,0.0,75,0.00,,CLR,0.00,VWS V14.01,2013-04-03 05:22:00,
2013-04-03 01:28:00,60.1,52.5,30.09,East,79,0.0,0.0,76,0.00,,CLR,0.00,VWS V14.01,2013-04-03 05:28:00,
2013-04-03 01:33:00,60.3,53.1,30.09,East,79,0.0,0.0,77,0.00,,CLR,0.00,VWS V14.01,2013-04-03 05:33:00,
2013-04-03 01:38:00,60.3,53.4,30.09,East,79,0.0,0.0,78,0.00,,CLR,0.00,VWS V14.01,2013-04-03 05:38:00,
2013-04-03 01:43:00,60.2,53.7,30.09,East,79,0.0,0.0,79,0.00,,CLR,0.00,VWS V14.01,2013-04-03 05:43:00,
2013-04-03 01:48:00,59.8,53.3,30.09,East,79,0.0,0.0,79,0.00,,CLR,0.00,VWS V14.01,2013-04-03 05:48:00,
2013-04-03 01:53:00,59.6,53.1,30.08,East,79,0.0,0.0,79,0.00,,CLR,0.00,VWS V14.01,2013-04-03 05:53:00,
2013-04-03 01:58:00,59.3,52.8,30.08,East,79,0.0,0.0,79,0.00,,CLR,0.00,VWS V14.01,2013-04-03 05:58:00,
2013-04-03 02:03:00,59.3,52.8,30.08,East,79,0.0,0.0,79,0.00,,CLR,0.00,VWS V14.01,2013-04-03 06:03:00,
2013-04-03 02:09:00,59.3,52.8,30.08,East,79,0.0,0.0,79,0.00,,CLR,0.00,VWS V14.01,2013-04-03 06:09:00,
2013-04-03 02:14:00,59.2,53.0,30.08,East,79,0.0,0.0,80,0.00,,CLR,0.00,VWS V14.01,2013-04-03 06:14:00,
2013-04-03 02:19:00,58.9,52.8,30.07,East,79,0.0,0.0,80,0.00,,CLR,0.00,VWS V14.01,2013-04-03 06:19:00,
2013-04-03 02:24:00,58.8,52.3,30.07,East,79,0.0,0.0,79,0.00,,CLR,0.00,VWS V14.01,2013-04-03 06:24:00,
2013-04-03 02:30:00,58.6,52.1,30.07,East,79,0.0,0.0,79,0.00,,CLR,0.00,VWS V14.01,2013-04-03 06:30:00,
2013-04-03 02:35:00,58.8,52.7,30.07,East,79,0.0,0.0,80,0.00,,CLR,0.00,VWS V14.01,2013-04-03 06:35:00,
2013-04-03 02:40:00,58.5,52.4,30.08,East,79,0.0,0.0,80,0.00,,CLR,0.00,VWS V14.01,2013-04-03 06:40:00,
2013-04-03 02:45:00,58.0,52.2,30.08,East,79,0.0,0.0,81,0.00,,CLR,0.00,VWS V14.01,2013-04-03 06:45:00,
2013-04-03 02:50:00,57.7,51.9,30.07,East,79,0.0,0.0,81,0.00,,CLR,0.00,VWS V14.01,2013-04-03 06:50:00,
2013-04-03 02:55:00,57.6,51.8,30.07,East,79,0.0,0.0,81,0.00,,CLR,0.00,VWS V14.01,2013-04-03 06:55:00,
2013-04-03 03:00:00,57.4,51.6,30.06,East,79,0.0,0.0,81,0.00,,CLR,0.00,VWS V14.01,2013-04-03 07:00:00,
2013-04-03 03:06:00,57.6,52.2,30.06,East,79,0.0,0.0,82,0.00,,CLR,0.00,VWS V14.01,2013-04-03 07:06:00,
2013-04-03 03:11:00,57.7,52.2,30.06,East,79,0.0,0.0,82,0.00,,CLR,0.00,VWS V14.01,2013-04-03 07:11:00,
2013-04-03 03:17:00,57.9,53.1,30.06,East,79,0.0,0.0,84,0.00,,CLR,0.00,VWS V14.01,2013-04-03 07:17:00,
2013-04-03 03:22:00,58.1,53.3,30.06,East,79,0.0,0.0,84,0.00,,CLR,0.00,VWS V14.01,2013-04-03 07:22:00,
2013-04-03 03:27:00,58.4,53.6,30.05,East,79,0.0,0.0,84,0.00,,CLR,0.00,VWS V14.01,2013-04-03 07:27:00,
2013-04-03 03:32:00,58.5,53.7,30.04,East,79,0.0,0.0,84,0.00,,CLR,0.00,VWS V14.01,2013-04-03 07:32:00,
2013-04-03 03:38:00,58.5,54.0,30.04,East,79,0.0,2.0,85,0.00,,CLR,0.00,VWS V14.01,2013-04-03 07:38:00,
2013-04-03 03:43:00,58.4,53.9,30.04,East,80,0.0,2.0,85,0.00,,CLR,0.00,VWS V14.01,2013-04-03 07:43:00,
2013-04-03 03:48:00,58.5,54.0,30.04,East,79,0.0,2.0,85,0.00,,CLR,0.00,VWS V14.01,2013-04-03 07:48:00,
2013-04-03 03:53:00,58.5,54.3,30.04,East,79,0.0,2.0,86,0.00,,CLR,0.00,VWS V14.01,2013-04-03 07:53:00,
2013-04-03 03:58:00,58.4,54.5,30.03,East,80,0.0,2.0,87,0.00,,CLR,0.00,VWS V14.01,2013-04-03 07:58:00,
2013-04-03 04:03:00,58.3,54.5,30.04,East,79,0.0,0.0,87,0.00,,CLR,0.00,VWS V14.01,2013-04-03 08:03:00,
2013-04-03 04:08:00,58.3,54.8,30.03,East,79,0.0,1.0,88,0.00,,CLR,0.00,VWS V14.01,2013-04-03 08:08:00,
2013-04-03 04:13:00,58.4,54.9,30.03,East,80,0.0,1.0,88,0.00,,CLR,0.00,VWS V14.01,2013-04-03 08:13:00,
2013-04-03 04:18:00,58.4,55.2,30.03,East,80,0.0,1.0,89,0.00,,CLR,0.00,VWS V14.01,2013-04-03 08:18:00,
2013-04-03 04:23:00,58.6,55.7,30.03,East,84,0.0,1.0,90,0.00,,CLR,0.00,VWS V14.01,2013-04-03 08:23:00,
2013-04-03 04:28:00,58.8,55.9,30.03,East,84,0.0,1.0,90,0.00,,CLR,0.00,VWS V14.01,2013-04-03 08:28:00,
2013-04-03 04:33:00,59.0,56.4,30.03,East,84,0.0,0.0,91,0.00,,CLR,0.00,VWS V14.01,2013-04-03 08:33:00,
2013-04-03 04:38:00,59.1,56.5,30.03,East,84,0.0,0.0,91,0.00,,CLR,0.00,VWS V14.01,2013-04-03 08:38:00,
2013-04-03 04:43:00,59.3,56.7,30.03,East,84,0.0,0.0,91,0.00,,CLR,0.00,VWS V14.01,2013-04-03 08:43:00,
2013-04-03 04:49:00,59.7,57.1,30.03,East,91,0.0,0.0,91,0.00,,CLR,0.00,VWS V14.01,2013-04-03 08:49:00,
2013-04-03 04:54:00,60.0,57.4,30.03,East,91,0.0,0.0,91,0.00,,CLR,0.00,VWS V14.01,2013-04-03 08:54:00,
2013-04-03 04:59:00,60.3,57.7,30.03,East,91,0.0,0.0,91,0.00,,CLR,0.00,VWS V14.01,2013-04-03 08:59:00,
2013-04-03 05:04:00,60.5,57.9,30.03,ESE,103,0.0,0.0,91,0.00,,CLR,0.00,VWS V14.01,2013-04-03 09:04:00,
2013-04-03 05:09:00,60.7,58.1,30.03,ESE,103,0.0,0.0,91,0.00,,CLR,0.00,VWS V14.01,2013-04-03 09:09:00,
2013-04-03 05:14:00,61.0,58.7,30.03,ESE,110,0.0,2.0,92,0.00,,CLR,0.00,VWS V14.01,2013-04-03 09:14:00,
2013-04-03 05:19:00,61.3,58.7,30.03,ESE,122,0.0,2.0,91,0.00,,CLR,0.00,VWS V14.01,2013-04-03 09:19:00,
2013-04-03 05:24:00,61.3,58.7,30.03,ESE,122,0.0,2.0,91,0.00,,CLR,0.00,VWS V14.01,2013-04-03 09:24:00,
2013-04-03 05:29:00,61.5,58.8,30.03,ESE,122,0.0,2.0,91,0.00,,CLR,0.00,VWS V14.01,2013-04-03 09:29:00,
2013-04-03 05:34:00,61.5,58.8,30.03,ESE,123,0.0,0.0,91,0.00,,CLR,0.00,VWS V14.01,2013-04-03 09:34:00,
2013-04-03 05:39:00,61.7,59.0,30.03,ESE,120,0.0,2.0,91,0.00,,CLR,0.00,VWS V14.01,2013-04-03 09:39:00,
2013-04-03 05:44:00,61.7,59.0,30.03,ESE,119,0.0,2.0,91,0.00,,CLR,0.00,VWS V14.01,2013-04-03 09:44:00,
2013-04-03 05:50:00,61.8,59.2,30.03,ESE,120,0.0,2.0,91,0.00,,CLR,0.00,VWS V14.01,2013-04-03 09:50:00,
2013-04-03 05:55:00,61.9,59.2,30.04,ESE,119,0.0,2.0,91,0.00,,CLR,0.00,VWS V14.01,2013-04-03 09:55:00,
2013-04-03 06:00:00,62.1,59.5,30.03,ESE,115,0.0,0.0,91,0.00,,CLR,0.00,VWS V14.01,2013-04-03 10:00:00,
2013-04-03 06:05:00,62.1,59.5,30.03,ESE,114,0.0,1.0,91,0.00,,CLR,0.00,VWS V14.01,2013-04-03 10:05:00,
2013-04-03 06:10:00,62.1,59.5,30.03,ESE,114,0.0,1.0,91,0.00,,CLR,0.00,VWS V14.01,2013-04-03 10:10:00,
2013-04-03 06:15:00,62.1,59.5,30.02,ESE,122,0.0,1.0,91,0.00,,CLR,0.00,VWS V14.01,2013-04-03 10:15:00,
2013-04-03 06:20:00,62.3,59.6,30.03,ESE,116,2.0,2.0,91,0.00,,CLR,0.00,VWS V14.01,2013-04-03 10:20:00,
2013-04-03 06:25:00,62.6,59.9,30.03,SE,128,0.0,5.0,91,0.00,,CLR,0.00,VWS V14.01,2013-04-03 10:25:00,
2013-04-03 06:30:00,63.0,60.3,30.03,SE,136,0.0,0.0,91,0.00,,CLR,0.00,VWS V14.01,2013-04-03 10:30:00,
2013-04-03 06:35:00,63.1,60.1,30.02,ESE,117,6.0,7.0,90,0.00,,CLR,0.00,VWS V14.01,2013-04-03 10:35:00,
2013-04-03 06:40:00,63.1,60.1,30.02,SE,126,6.0,7.0,90,0.00,,CLR,0.00,VWS V14.01,2013-04-03 10:40:00,
2013-04-03 06:46:00,63.1,60.1,30.02,SE,124,0.0,7.0,90,0.00,,CLR,0.00,VWS V14.01,2013-04-03 10:46:00,
2013-04-03 06:51:00,63.1,60.1,30.03,ESE,123,0.0,7.0,90,0.00,,CLR,0.00,VWS V14.01,2013-04-03 10:51:00,
2013-04-03 06:56:00,63.2,60.2,30.03,ESE,113,0.0,7.0,90,0.00,,CLR,0.00,VWS V14.01,2013-04-03 10:56:00,
2013-04-03 07:01:00,63.1,60.1,30.04,ESE,117,0.0,0.0,90,0.00,,CLR,0.00,VWS V14.01,2013-04-03 11:01:00,
2013-04-03 07:06:00,63.0,60.3,30.04,ESE,117,0.0,0.0,91,0.00,,CLR,0.00,VWS V14.01,2013-04-03 11:06:00,
2013-04-03 07:11:00,62.9,60.2,30.04,ESE,117,0.0,0.0,91,0.00,,CLR,0.00,VWS V14.01,2013-04-03 11:11:00,
2013-04-03 07:16:00,62.8,60.1,30.05,ESE,117,0.0,0.0,91,0.00,,CLR,0.00,VWS V14.01,2013-04-03 11:16:00,
2013-04-03 07:21:00,62.7,60.0,30.05,ESE,117,0.0,0.0,91,0.00,,CLR,0.00,VWS V14.01,2013-04-03 11:21:00,
2013-04-03 07:26:00,62.4,60.0,30.05,ESE,117,0.0,0.0,92,0.00,,CLR,0.00,VWS V14.01,2013-04-03 11:26:00,
2013-04-03 07:31:00,62.2,59.8,30.05,ESE,117,0.0,0.0,92,0.00,,CLR,0.00,VWS V14.01,2013-04-03 11:31:00,
2013-04-03 07:36:00,62.1,59.8,30.04,SE,124,0.0,0.0,92,0.00,,CLR,0.00,VWS V14.01,2013-04-03 11:36:00,
2013-04-03 07:42:00,61.9,59.5,30.04,ESE,105,0.0,0.0,92,0.00,,CLR,0.00,VWS V14.01,2013-04-03 11:42:00,
2013-04-03 07:47:00,61.9,59.9,30.04,East,101,0.0,0.0,93,0.00,,CLR,0.00,VWS V14.01,2013-04-03 11:47:00,
2013-04-03 07:52:00,62.1,60.1,30.04,East,101,0.0,0.0,93,0.00,,CLR,0.00,VWS V14.01,2013-04-03 11:52:00,
2013-04-03 07:57:00,62.4,60.3,30.05,ESE,102,0.0,0.0,93,0.00,,CLR,0.00,VWS V14.01,2013-04-03 11:57:00,
2013-04-03 08:02:00,62.7,60.7,30.05,East,100,0.0,0.0,93,0.00,,CLR,0.00,VWS V14.01,2013-04-03 12:02:00,
2013-04-03 08:07:00,63.1,61.0,30.05,East,100,0.0,0.0,93,0.00,,CLR,0.00,VWS V14.01,2013-04-03 12:07:00,
2013-04-03 08:12:00,63.5,61.1,30.05,East,100,0.0,0.0,92,0.00,,CLR,0.00,VWS V14.01,2013-04-03 12:12:00,
2013-04-03 08:17:00,64.0,61.3,30.05,East,100,0.0,0.0,91,0.00,,CLR,0.00,VWS V14.01,2013-04-03 12:17:00,
2013-04-03 08:22:00,64.7,62.0,30.06,ENE,78,0.0,0.0,91,0.00,,CLR,0.00,VWS V14.01,2013-04-03 12:22:00,
2013-04-03 08:27:00,65.5,62.2,30.06,ENE,78,0.0,0.0,89,0.00,,CLR,0.00,VWS V14.01,2013-04-03 12:27:00,
2013-04-03 08:32:00,66.0,62.7,30.06,East,97,0.0,1.0,89,0.00,,CLR,0.00,VWS V14.01,2013-04-03 12:32:00,
2013-04-03 08:38:00,66.7,63.0,30.05,ESE,109,1.0,5.0,88,0.00,,CLR,0.00,VWS V14.01,2013-04-03 12:38:00,
2013-04-03 08:43:00,67.3,63.3,30.06,SE,138,0.0,6.0,87,0.00,,CLR,0.00,VWS V14.01,2013-04-03 12:43:00,
2013-04-03 08:48:00,68.1,63.4,30.05,SSE,166,0.0,6.0,85,0.00,,CLR,0.00,VWS V14.01,2013-04-03 12:48:00,
2013-04-03 08:53:00,68.6,63.6,30.05,SE,127,8.0,9.0,84,0.00,,CLR,0.00,VWS V14.01,2013-04-03 12:53:00,
2013-04-03 08:58:00,68.9,63.5,30.06,SE,133,8.0,12.0,83,0.00,,CLR,0.00,VWS V14.01,2013-04-03 12:58:00,
2013-04-03 09:03:00,69.4,63.7,30.05,SE,136,4.0,11.0,82,0.00,,CLR,0.00,VWS V14.01,2013-04-03 13:03:00,
2013-04-03 09:08:00,70.0,63.9,30.05,SE,137,5.0,11.0,81,0.00,,CLR,0.00,VWS V14.01,2013-04-03 13:08:00,
2013-04-03 09:13:00,70.5,63.7,30.06,ESE,120,6.0,12.0,79,0.00,,CLR,0.00,VWS V14.01,2013-04-03 13:13:00,
2013-04-03 09:18:00,71.2,64.4,30.06,ESE,122,4.0,12.0,79,0.00,,CLR,0.00,VWS V14.01,2013-04-03 13:18:00,
2013-04-03 09:23:00,72.0,64.4,30.06,SE,126,7.0,12.0,77,0.00,,CLR,0.00,VWS V14.01,2013-04-03 13:23:00,
2013-04-03 09:29:00,72.8,64.4,30.06,SE,126,1.0,12.0,75,0.00,,CLR,0.00,VWS V14.01,2013-04-03 13:29:00,
2013-04-03 09:34:00,73.4,65.0,30.06,East,95,1.0,13.0,75,0.00,,CLR,0.00,VWS V14.01,2013-04-03 13:34:00,
2013-04-03 09:39:00,74.1,65.3,30.05,SE,124,1.0,13.0,74,0.00,,CLR,0.00,VWS V14.01,2013-04-03 13:39:00,
2013-04-03 09:44:00,74.8,65.6,30.05,SSE,163,5.0,13.0,73,0.00,,CLR,0.00,VWS V14.01,2013-04-03 13:44:00,
2013-04-03 09:49:00,74.9,64.9,30.05,ESE,123,9.0,14.0,71,0.00,,CLR,0.00,VWS V14.01,2013-04-03 13:49:00,
2013-04-03 09:54:00,75.0,65.0,30.05,SSE,155,14.0,17.0,71,0.00,,CLR,0.00,VWS V14.01,2013-04-03 13:54:00,
2013-04-03 09:59:00,75.3,64.8,30.05,SE,126,11.0,19.0,70,0.00,,CLR,0.00,VWS V14.01,2013-04-03 13:59:00,
2013-04-03 10:04:00,75.7,64.8,30.05,SSE,164,15.0,21.0,69,0.00,,CLR,0.00,VWS V14.01,2013-04-03 14:04:00,
2013-04-03 10:09:00,75.7,65.2,30.05,SSE,157,11.0,21.0,70,0.00,,CLR,0.00,VWS V14.01,2013-04-03 14:09:00,
2013-04-03 10:14:00,75.6,65.1,30.05,SSE,150,19.0,21.0,70,0.00,,CLR,0.00,VWS V14.01,2013-04-03 14:14:00,
2013-04-03 10:19:00,75.4,64.9,30.05,SE,134,11.0,21.0,70,0.00,,CLR,0.00,VWS V14.01,2013-04-03 14:19:00,
2013-04-03 10:24:00,75.6,65.1,30.05,South,169,15.0,22.0,70,0.00,,CLR,0.00,VWS V14.01,2013-04-03 14:24:00,
2013-04-03 10:29:00,76.1,65.2,30.05,SSE,155,13.0,22.0,69,0.00,,CLR,0.00,VWS V14.01,2013-04-03 14:29:00,
2013-04-03 10:34:00,76.3,65.4,30.05,ESE,119,7.0,18.0,69,0.00,,CLR,0.00,VWS V14.01,2013-04-03 14:34:00,
2013-04-03 10:39:00,76.9,66.0,30.05,SSE,155,8.0,19.0,69,0.00,,CLR,0.00,VWS V14.01,2013-04-03 14:39:00,
2013-04-03 10:44:00,77.0,66.1,30.06,SSE,157,13.0,19.0,69,0.00,,CLR,0.00,VWS V14.01,2013-04-03 14:44:00,
2013-04-03 10:49:00,77.9,66.1,30.06,SSE,152,10.0,19.0,67,0.00,,CLR,0.00,VWS V14.01,2013-04-03 14:49:00,
2013-04-03 10:54:00,79.0,66.7,30.06,ESE,114,2.0,19.0,66,0.00,,CLR,0.00,VWS V14.01,2013-04-03 14:54:00,
2013-04-03 10:59:00,78.9,66.2,30.06,SSE,152,15.0,19.0,65,0.00,,CLR,0.00,VWS V14.01,2013-04-03 14:59:00,
2013-04-03 11:04:00,77.8,66.0,30.07,SSE,150,9.0,15.0,67,0.00,,CLR,0.00,VWS V14.01,2013-04-03 15:04:00,
2013-04-03 11:09:00,78.3,66.4,30.06,ESE,123,7.0,20.0,67,0.00,,CLR,0.00,VWS V14.01,2013-04-03 15:09:00,
2013-04-03 11:15:00,78.7,66.4,30.06,SSE,153,8.0,21.0,66,0.00,,CLR,0.00,VWS V14.01,2013-04-03 15:15:00,
2013-04-03 11:20:00,79.3,66.5,30.06,SE,130,6.0,21.0,65,0.00,,CLR,0.00,VWS V14.01,2013-04-03 15:20:00,
2013-04-03 11:25:00,79.0,66.7,30.05,SE,132,5.0,21.0,66,0.00,,CLR,0.00,VWS V14.01,2013-04-03 15:25:00,
2013-04-03 11:30:00,79.1,66.3,30.05,ESE,119,8.0,12.0,65,0.00,,CLR,0.00,VWS V14.01,2013-04-03 15:30:00,
2013-04-03 11:35:00,79.0,66.7,30.05,ESE,122,13.0,13.0,66,0.00,,CLR,0.00,VWS V14.01,2013-04-03 15:35:00,
2013-04-03 11:40:00,78.7,66.0,30.05,SSE,148,6.0,14.0,65,0.00,,CLR,0.00,VWS V14.01,2013-04-03 15:40:00,
2013-04-03 11:45:00,78.6,65.9,30.05,SE,127,7.0,14.0,65,0.00,,CLR,0.00,VWS V14.01,2013-04-03 15:45:00,
2013-04-03 11:50:00,78.7,66.4,30.05,SSE,150,5.0,14.0,66,0.00,,CLR,0.00,VWS V14.01,2013-04-03 15:50:00,
2013-04-03 11:55:00,78.8,66.1,30.04,SSE,148,14.0,17.0,65,0.00,,CLR,0.00,VWS V14.01,2013-04-03 15:55:00,
2013-04-03 12:01:00,79.1,66.3,30.03,SE,141,6.0,13.0,65,0.00,,CLR,0.00,VWS V14.01,2013-04-03 16:01:00,
2013-04-03 12:06:00,80.7,67.4,30.03,ESE,123,6.0,15.0,64,0.00,,CLR,0.00,VWS V14.01,2013-04-03 16:06:00,
2013-04-03 12:11:00,82.6,66.8,30.04,SE,125,12.0,17.0,59,0.00,,CLR,0.00,VWS V14.01,2013-04-03 16:11:00,
2013-04-03 12:17:00,82.0,66.8,30.04,SE,126,5.0,17.0,60,0.00,,CLR,0.00,VWS V14.01,2013-04-03 16:17:00,
2013-04-03 12:23:00,81.8,66.6,30.04,SE,135,5.0,17.0,60,0.00,,CLR,0.00,VWS V14.01,2013-04-03 16:23:00,
2013-04-03 12:28:00,82.2,66.0,30.04,East,80,6.0,17.0,58,0.00,,CLR,0.00,VWS V14.01,2013-04-03 16:28:00,
2013-04-03 12:33:00,81.5,65.8,30.03,ESE,117,5.0,14.0,59,0.00,,CLR,0.00,VWS V14.01,2013-04-03 16:33:00,
2013-04-03 12:38:00,82.3,66.1,30.04,SSE,148,5.0,14.0,58,0.00,,CLR,0.00,VWS V14.01,2013-04-03 16:38:00,
2013-04-03 12:44:00,81.8,66.1,30.04,ESE,121,13.0,15.0,59,0.00,,CLR,0.00,VWS V14.01,2013-04-03 16:44:00,
2013-04-03 12:49:00,81.9,65.7,30.03,ESE,114,4.0,15.0,58,0.00,,CLR,0.00,VWS V14.01,2013-04-03 16:49:00,
2013-04-03 12:54:00,82.3,66.6,30.03,SE,132,12.0,15.0,59,0.00,,CLR,0.00,VWS V14.01,2013-04-03 16:54:00,
2013-04-03 12:59:00,82.5,65.8,30.02,ESE,123,9.0,15.0,57,0.00,,CLR,0.00,VWS V14.01,2013-04-03 16:59:00,
2013-04-03 13:04:00,82.7,65.4,30.03,SSE,153,10.0,16.0,56,0.00,,CLR,0.00,VWS V14.01,2013-04-03 17:04:00,
2013-04-03 13:09:00,82.4,65.1,30.03,SE,144,2.0,16.0,56,0.00,,CLR,0.00,VWS V14.01,2013-04-03 17:09:00,
2013-04-03 13:15:00,82.5,65.2,30.02,ESE,107,7.0,16.0,56,0.00,,CLR,0.00,VWS V14.01,2013-04-03 17:15:00,
2013-04-03 13:20:00,82.0,64.3,30.01,SSE,156,6.0,16.0,55,0.00,,CLR,0.00,VWS V14.01,2013-04-03 17:20:00,
2013-04-03 13:25:00,82.3,64.5,30.02,SE,137,10.0,16.0,55,0.00,,CLR,0.00,VWS V14.01,2013-04-03 17:25:00,
2013-04-03 13:30:00,82.6,64.8,30.02,SE,135,9.0,11.0,55,0.00,,CLR,0.00,VWS V14.01,2013-04-03 17:30:00,
2013-04-03 13:35:00,82.8,65.0,30.03,South,169,9.0,13.0,55,0.00,,CLR,0.00,VWS V14.01,2013-04-03 17:35:00,
2013-04-03 13:41:00,84.4,65.4,30.02,ESE,117,2.0,13.0,53,0.00,,CLR,0.00,VWS V14.01,2013-04-03 17:41:00,
2013-04-03 13:46:00,84.7,64.6,30.02,SE,131,6.0,13.0,51,0.00,,CLR,0.00,VWS V14.01,2013-04-03 17:46:00,
2013-04-03 13:51:00,85.0,64.3,30.02,SE,141,10.0,13.0,50,0.00,,CLR,0.00,VWS V14.01,2013-04-03 17:51:00,
2013-04-03 13:56:00,85.4,64.7,30.01,SE,130,2.0,13.0,50,0.00,,CLR,0.00,VWS V14.01,2013-04-03 17:56:00,
2013-04-03 14:02:00,85.3,63.4,30.01,SE,134,5.0,8.0,48,0.00,,CLR,0.00,VWS V14.01,2013-04-03 18:02:00,
2013-04-03 14:08:00,84.4,63.8,30.01,SE,146,12.0,13.0,50,0.00,,CLR,0.00,VWS V14.01,2013-04-03 18:08:00,
2013-04-03 14:13:00,83.1,63.1,30.01,SE,138,11.0,17.0,51,0.00,,CLR,0.00,VWS V14.01,2013-04-03 18:13:00,
2013-04-03 14:18:00,83.0,63.6,30.00,SSE,164,4.0,17.0,52,0.00,,CLR,0.00,VWS V14.01,2013-04-03 18:18:00,
2013-04-03 14:24:00,83.4,63.4,30.00,SSW,202,6.0,17.0,51,0.00,,CLR,0.00,VWS V14.01,2013-04-03 18:24:00,
2013-04-03 14:29:00,83.1,63.1,30.01,SE,129,5.0,17.0,51,0.00,,CLR,0.00,VWS V14.01,2013-04-03 18:29:00,
2013-04-03 14:35:00,83.3,63.3,30.01,SSE,148,10.0,13.0,51,0.00,,CLR,0.00,VWS V14.01,2013-04-03 18:35:00,
2013-04-03 14:40:00,82.9,63.5,30.01,SSE,147,6.0,13.0,52,0.00,,CLR,0.00,VWS V14.01,2013-04-03 18:40:00,
2013-04-03 14:46:00,83.3,63.3,30.01,SE,146,8.0,13.0,51,0.00,,CLR,0.00,VWS V14.01,2013-04-03 18:46:00,
2013-04-03 14:51:00,83.4,63.4,30.01,SE,125,7.0,13.0,51,0.00,,CLR,0.00,VWS V14.01,2013-04-03 18:51:00,
2013-04-03 14:56:00,83.6,63.6,30.01,SE,140,7.0,13.0,51,0.00,,CLR,0.00,VWS V14.01,2013-04-03 18:56:00,
2013-04-03 15:02:00,83.1,63.7,30.01,SSE,152,10.0,10.0,52,0.00,,CLR,0.00,VWS V14.01,2013-04-03 19:02:00,
2013-04-03 15:07:00,82.8,63.9,30.01,SE,135,1.0,13.0,53,0.00,,CLR,0.00,VWS V14.01,2013-04-03 19:07:00,
2013-04-03 15:13:00,83.0,63.6,30.00,SE,133,4.0,13.0,52,0.00,,CLR,0.00,VWS V14.01,2013-04-03 19:13:00,
2013-04-03 15:19:00,83.2,63.8,30.00,SE,137,6.0,13.0,52,0.00,,CLR,0.00,VWS V14.01,2013-04-03 19:19:00,
2013-04-03 15:24:00,82.9,63.5,30.00,ESE,123,5.0,13.0,52,0.00,,CLR,0.00,VWS V14.01,2013-04-03 19:24:00,
2013-04-03 15:29:00,82.7,63.8,29.99,SE,134,2.0,13.0,53,0.00,,CLR,0.00,VWS V14.01,2013-04-03 19:29:00,
2013-04-03 15:34:00,82.4,63.6,29.99,SSE,159,5.0,8.0,53,0.00,,CLR,0.00,VWS V14.01,2013-04-03 19:34:00,
2013-04-03 15:39:00,82.2,63.9,29.99,SE,146,1.0,12.0,54,0.00,,CLR,0.00,VWS V14.01,2013-04-03 19:39:00,
2013-04-03 15:45:00,82.0,63.7,29.99,SE,146,11.0,12.0,54,0.00,,CLR,0.00,VWS V14.01,2013-04-03 19:45:00,
2013-04-03 15:50:00,82.0,64.3,29.98,SE,132,7.0,12.0,55,0.00,,CLR,0.00,VWS V14.01,2013-04-03 19:50:00,
2013-04-03 15:55:00,82.0,63.7,29.98,SE,130,5.0,12.0,54,0.00,,CLR,0.00,VWS V14.01,2013-04-03 19:55:00,
2013-04-03 16:01:00,81.4,63.2,29.97,SE,144,2.0,9.0,54,0.00,,CLR,0.00,VWS V14.01,2013-04-03 20:01:00,
2013-04-03 16:07:00,81.3,63.1,29.97,SE,133,0.0,9.0,54,0.00,,CLR,0.00,VWS V14.01,2013-04-03 20:07:00,
2013-04-03 16:12:00,81.2,63.0,29.97,ESE,119,6.0,12.0,54,0.00,,CLR,0.00,VWS V14.01,2013-04-03 20:12:00,
2013-04-03 16:17:00,81.1,63.4,29.97,SSE,155,6.0,12.0,55,0.00,,CLR,0.00,VWS V14.01,2013-04-03 20:17:00,
2013-04-03 16:22:00,81.0,63.3,29.98,SE,136,1.0,12.0,55,0.00,,CLR,0.00,VWS V14.01,2013-04-03 20:22:00,
2013-04-03 16:27:00,80.9,63.2,29.98,SE,133,8.0,12.0,55,0.00,,CLR,0.00,VWS V14.01,2013-04-03 20:27:00,
2013-04-03 16:33:00,81.1,63.4,29.97,SE,134,0.0,6.0,55,0.00,,CLR,0.00,VWS V14.01,2013-04-03 20:33:00,
2013-04-03 16:38:00,81.1,63.4,29.98,SE,130,6.0,8.0,55,0.00,,CLR,0.00,VWS V14.01,2013-04-03 20:38:00,
2013-04-03 16:43:00,81.1,63.4,29.98,SE,134,0.0,8.0,55,0.00,,CLR,0.00,VWS V14.01,2013-04-03 20:43:00,
2013-04-03 16:51:00,81.3,63.6,29.97,SE,132,6.0,8.0,55,0.00,,CLR,0.00,VWS V14.01,2013-04-03 20:51:00,
2013-04-03 16:56:00,81.4,63.7,29.97,SE,130,0.0,8.0,55,0.00,,CLR,0.00,VWS V14.01,2013-04-03 20:56:00,
2013-04-03 17:01:00,81.5,63.8,29.98,SE,126,4.0,5.0,55,0.00,,CLR,0.00,VWS V14.01,2013-04-03 21:01:00,
2013-04-03 17:07:00,81.4,63.7,29.98,SE,127,0.0,5.0,55,0.00,,CLR,0.00,VWS V14.01,2013-04-03 21:07:00,
2013-04-03 17:13:00,81.4,63.7,29.98,SE,127,0.0,5.0,55,0.00,,CLR,0.00,VWS V14.01,2013-04-03 21:13:00,
2013-04-03 17:18:00,81.6,63.9,29.98,SE,126,0.0,5.0,55,0.00,,CLR,0.00,VWS V14.01,2013-04-03 21:18:00,
2013-04-03 17:23:00,81.7,64.0,29.98,SE,127,0.0,5.0,55,0.00,,CLR,0.00,VWS V14.01,2013-04-03 21:23:00,
2013-04-03 17:28:00,81.0,64.8,29.99,NNW,340,9.0,9.0,58,0.00,,CLR,0.00,VWS V14.01,2013-04-03 21:28:00,
2013-04-03 17:33:00,78.2,64.6,29.99,North,5,6.0,16.0,63,0.00,,CLR,0.00,VWS V14.01,2013-04-03 21:33:00,
2013-04-03 17:38:00,76.1,64.4,29.99,North,350,9.0,16.0,67,0.00,,CLR,0.00,VWS V14.01,2013-04-03 21:38:00,
2013-04-03 17:43:00,74.6,64.2,30.00,NNE,22,7.0,16.0,70,0.00,,CLR,0.00,VWS V14.01,2013-04-03 21:43:00,
2013-04-03 17:48:00,73.5,64.7,29.99,NNW,346,11.0,16.0,74,0.00,,CLR,0.00,VWS V14.01,2013-04-03 21:48:00,
2013-04-03 17:53:00,72.7,64.7,29.99,North,351,8.0,16.0,76,0.00,,CLR,0.00,VWS V14.01,2013-04-03 21:53:00,
2013-04-03 17:58:00,72.1,64.5,29.99,NNE,26,4.0,16.0,77,0.00,,CLR,0.00,VWS V14.01,2013-04-03 21:58:00,
2013-04-03 18:05:00,71.5,65.0,29.99,NE,34,5.0,10.0,80,0.00,,CLR,0.00,VWS V14.01,2013-04-03 22:05:00,
2013-04-03 18:10:00,71.1,65.3,29.99,NE,45,5.0,13.0,82,0.00,,CLR,0.00,VWS V14.01,2013-04-03 22:10:00,
2013-04-03 18:15:00,70.7,65.3,29.99,North,355,12.0,13.0,83,0.00,,CLR,0.00,VWS V14.01,2013-04-03 22:15:00,
2013-04-03 18:20:00,70.4,65.3,29.99,NNE,17,9.0,13.0,84,0.00,,CLR,0.00,VWS V14.01,2013-04-03 22:20:00,
2013-04-03 18:25:00,70.2,65.1,29.99,NNE,17,8.0,16.0,84,0.00,,CLR,0.00,VWS V14.01,2013-04-03 22:25:00,
2013-04-03 18:30:00,70.1,65.1,29.99,NE,45,3.0,10.0,84,0.00,,CLR,0.00,VWS V14.01,2013-04-03 22:30:00,
2013-04-03 18:35:00,70.0,64.9,30.00,NE,38,7.0,13.0,84,0.00,,CLR,0.00,VWS V14.01,2013-04-03 22:35:00,
2013-04-03 18:40:00,69.8,65.1,30.00,NE,53,5.0,13.0,85,0.00,,CLR,0.00,VWS V14.01,2013-04-03 22:40:00,
2013-04-03 18:45:00,69.6,64.9,30.00,ENE,60,6.0,13.0,85,0.00,,CLR,0.00,VWS V14.01,2013-04-03 22:45:00,
2013-04-03 18:50:00,69.5,64.8,30.00,NE,53,7.0,13.0,85,0.00,,CLR,0.00,VWS V14.01,2013-04-03 22:50:00,
2013-04-03 18:56:00,69.5,64.5,30.02,East,98,4.0,13.0,84,0.00,,CLR,0.00,VWS V14.01,2013-04-03 22:56:00,
2013-04-03 19:01:00,68.9,65.2,30.03,ESE,119,5.0,5.0,88,0.06,,CLR,0.06,VWS V14.01,2013-04-03 23:01:00,
2013-04-03 19:07:00,67.9,65.2,30.04,South,175,5.0,14.0,91,0.23,,CLR,0.23,VWS V14.01,2013-04-03 23:07:00,
2013-04-03 19:12:00,67.0,64.6,30.04,SSW,202,0.0,14.0,92,0.37,,CLR,0.37,VWS V14.01,2013-04-03 23:12:00,
2013-04-03 19:17:00,66.5,64.7,30.03,SSE,155,0.0,14.0,94,0.49,,CLR,0.49,VWS V14.01,2013-04-03 23:17:00,
2013-04-03 19:22:00,66.2,64.7,30.01,NE,56,7.0,14.0,95,0.51,,CLR,0.51,VWS V14.01,2013-04-03 23:22:00,
2013-04-03 19:27:00,65.8,64.3,30.01,East,79,4.0,14.0,95,0.52,,CLR,0.52,VWS V14.01,2013-04-03 23:27:00,
2013-04-03 19:33:00,65.4,63.9,30.01,ENE,71,0.0,10.0,95,0.52,,CLR,0.52,VWS V14.01,2013-04-03 23:33:00,
2013-04-03 19:38:00,64.8,63.3,30.01,NE,50,0.0,12.0,95,0.52,,CLR,0.52,VWS V14.01,2013-04-03 23:38:00,
2013-04-03 19:43:00,64.5,63.0,30.02,East,84,5.0,12.0,95,0.52,,CLR,0.52,VWS V14.01,2013-04-03 23:43:00,
2013-04-03 19:48:00,64.4,62.9,30.02,East,91,4.0,12.0,95,0.52,,CLR,0.52,VWS V14.01,2013-04-03 23:48:00,
2013-04-03 19:53:00,64.3,63.1,30.02,NE,53,4.0,12.0,96,0.52,,CLR,0.52,VWS V14.01,2013-04-03 23:53:00,
2013-04-03 19:59:00,64.3,63.1,30.02,East,91,5.0,12.0,96,0.52,,CLR,0.52,VWS V14.01,2013-04-03 23:59:00,
2013-04-03 20:04:00,64.4,63.2,30.03,ENE,72,3.0,6.0,96,0.46,,CLR,0.52,VWS V14.01,2013-04-04 00:04:00,
2013-04-03 20:09:00,64.4,63.2,30.03,East,95,5.0,8.0,96,0.46,,CLR,0.52,VWS V14.01,2013-04-04 00:09:00,
2013-04-03 20:14:00,64.4,63.2,30.03,East,96,4.0,8.0,96,0.46,,CLR,0.52,VWS V14.01,2013-04-04 00:14:00,
2013-04-03 20:19:00,64.4,63.2,30.03,East,88,0.0,8.0,96,0.46,,CLR,0.52,VWS V14.01,2013-04-04 00:19:00,
2013-04-03 20:24:00,64.5,63.3,30.03,ENE,70,3.0,8.0,96,0.46,,CLR,0.52,VWS V14.01,2013-04-04 00:24:00,
2013-04-03 20:29:00,64.6,63.4,30.03,East,88,0.0,8.0,96,0.46,,CLR,0.52,VWS V14.01,2013-04-04 00:29:00,
2013-04-03 20:34:00,64.6,63.4,30.03,ENE,78,4.0,6.0,96,0.00,,CLR,0.52,VWS V14.01,2013-04-04 00:34:00,
2013-04-03 20:39:00,64.6,63.4,30.02,East,88,0.0,6.0,96,0.00,,CLR,0.52,VWS V14.01,2013-04-04 00:39:00,
2013-04-03 20:45:00,64.6,63.4,30.02,East,86,2.0,6.0,96,0.00,,CLR,0.52,VWS V14.01,2013-04-04 00:45:00,
2013-04-03 20:50:00,64.6,63.4,30.02,East,86,2.0,6.0,96,0.00,,CLR,0.52,VWS V14.01,2013-04-04 00:50:00,
2013-04-03 20:55:00,64.6,63.4,30.02,East,94,5.0,6.0,96,0.00,,CLR,0.52,VWS V14.01,2013-04-04 00:55:00,
2013-04-03 21:00:00,64.6,63.4,30.02,East,90,2.0,3.0,96,0.00,,CLR,0.52,VWS V14.01,2013-04-04 01:00:00,
2013-04-03 21:05:00,64.6,63.4,30.02,East,84,3.0,6.0,96,0.00,,CLR,0.52,VWS V14.01,2013-04-04 01:05:00,
2013-04-03 21:10:00,64.6,63.1,30.02,East,91,6.0,7.0,95,0.00,,CLR,0.52,VWS V14.01,2013-04-04 01:10:00,
2013-04-03 21:16:00,64.7,63.2,30.02,East,89,5.0,8.0,95,0.00,,CLR,0.52,VWS V14.01,2013-04-04 01:16:00,
2013-04-03 21:22:00,64.8,63.3,30.02,East,92,0.0,8.0,95,0.00,,CLR,0.52,VWS V14.01,2013-04-04 01:22:00,
2013-04-03 21:27:00,64.8,63.3,30.01,ENE,64,3.0,10.0,95,0.00,,CLR,0.52,VWS V14.01,2013-04-04 01:27:00,
2013-04-03 21:32:00,64.9,63.4,30.02,East,90,0.0,4.0,95,0.00,,CLR,0.52,VWS V14.01,2013-04-04 01:32:00,
2013-04-03 21:37:00,64.9,63.4,30.03,ENE,57,3.0,7.0,95,0.00,,CLR,0.52,VWS V14.01,2013-04-04 01:37:00,
2013-04-03 21:43:00,65.0,63.2,30.05,ENE,76,0.0,7.0,94,0.00,,CLR,0.52,VWS V14.01,2013-04-04 01:43:00,
2013-04-03 21:48:00,65.1,63.3,30.05,East,87,0.0,7.0,94,0.00,,CLR,0.52,VWS V14.01,2013-04-04 01:48:00,
2013-04-03 21:53:00,65.2,63.4,30.05,East,87,0.0,7.0,94,0.00,,CLR,0.52,VWS V14.01,2013-04-04 01:53:00,
2013-04-03 21:58:00,65.3,63.5,30.05,East,87,0.0,7.0,94,0.00,,CLR,0.52,VWS V14.01,2013-04-04 01:58:00,
2013-04-03 22:04:00,65.4,63.6,30.06,East,87,0.0,0.0,94,0.00,,CLR,0.52,VWS V14.01,2013-04-04 02:04:00,
2013-04-03 22:09:00,65.3,63.8,30.06,WNW,295,2.0,2.0,95,0.00,,CLR,0.52,VWS V14.01,2013-04-04 02:09:00,
2013-04-03 22:14:00,65.3,63.8,30.07,NW,306,4.0,7.0,95,0.00,,CLR,0.52,VWS V14.01,2013-04-04 02:14:00,
2013-04-03 22:19:00,65.3,63.8,30.08,WNW,284,2.0,9.0,95,0.00,,CLR,0.52,VWS V14.01,2013-04-04 02:19:00,
2013-04-03 22:24:00,65.1,63.6,30.08,WNW,286,0.0,9.0,95,0.04,,CLR,0.56,VWS V14.01,2013-04-04 02:24:00,
2013-04-03 22:30:00,64.9,63.7,30.07,North,355,0.0,9.0,96,0.04,,CLR,0.56,VWS V14.01,2013-04-04 02:30:00,
2013-04-03 22:35:00,64.9,63.7,30.08,ENE,68,2.0,4.0,96,0.05,,CLR,0.57,VWS V14.01,2013-04-04 02:35:00,
2013-04-03 22:40:00,64.9,63.7,30.08,ENE,68,0.0,4.0,96,0.06,,CLR,0.58,VWS V14.01,2013-04-04 02:40:00,
2013-04-03 22:45:00,65.0,63.8,30.08,ENE,68,0.0,4.0,96,0.06,,CLR,0.58,VWS V14.01,2013-04-04 02:45:00,
2013-04-03 22:50:00,65.0,63.8,30.08,ENE,68,0.0,4.0,96,0.08,,CLR,0.60,VWS V14.01,2013-04-04 02:50:00,
2013-04-03 22:55:00,64.9,64.0,30.08,ENE,68,0.0,4.0,97,0.08,,CLR,0.60,VWS V14.01,2013-04-04 02:55:00,
2013-04-03 23:01:00,64.9,64.0,30.07,ENE,68,0.0,0.0,97,0.08,,CLR,0.60,VWS V14.01,2013-04-04 03:01:00,
2013-04-03 23:07:00,65.0,64.1,30.06,East,82,0.0,5.0,97,0.08,,CLR,0.60,VWS V14.01,2013-04-04 03:07:00,
2013-04-03 23:12:00,65.1,64.2,30.05,ENE,77,2.0,6.0,97,0.08,,CLR,0.60,VWS V14.01,2013-04-04 03:12:00,
2013-04-03 23:17:00,65.1,64.2,30.04,East,80,6.0,8.0,97,0.08,,CLR,0.60,VWS V14.01,2013-04-04 03:17:00,
2013-04-03 23:23:00,65.2,64.3,30.04,NE,56,4.0,8.0,97,0.08,,CLR,0.60,VWS V14.01,2013-04-04 03:23:00,
2013-04-03 23:28:00,65.2,64.3,30.04,East,94,6.0,8.0,97,0.08,,CLR,0.60,VWS V14.01,2013-04-04 03:28:00,
2013-04-03 23:33:00,65.2,64.3,30.03,ENE,74,4.0,7.0,97,0.04,,CLR,0.60,VWS V14.01,2013-04-04 03:33:00,
2013-04-03 23:38:00,65.3,64.1,30.03,East,89,3.0,8.0,96,0.04,,CLR,0.60,VWS V14.01,2013-04-04 03:38:00,
2013-04-03 23:43:00,65.3,64.1,30.03,East,88,4.0,8.0,96,0.04,,CLR,0.60,VWS V14.01,2013-04-04 03:43:00,
2013-04-03 23:48:00,65.3,64.4,30.03,East,88,2.0,9.0,97,0.04,,CLR,0.60,VWS V14.01,2013-04-04 03:48:00,
2013-04-03 23:54:00,65.4,64.5,30.03,ESE,123,4.0,9.0,97,0.04,,CLR,0.60,VWS V14.01,2013-04-04 03:54:00,
2013-04-03 23:59:00,65.4,64.5,30.02,SE,132,7.0,11.0,97,0.04,,CLR,0.60,VWS V14.01,2013-04-04 03:59:00,